OBJECT F (43763 NORAD) Tracking and Keplerian Element Data

This shows tracking and keplerian element data for the satellite.

Feedback or suggestion? Click here.




ElementValue
Catalog43763
NameOBJECT F
Epoch Orbit987
Epoch Day38.79157463
Epoch Year2019
RAAN112.3216
Inclination97.7594
Eccentricity0.0014775
Argument of Perigee46.9385
Mean Anonmoly313.3069
Mean Motion14.95483569
Decay Rate-3.52E-06
L11 43763U 18099F 19038.79157463 -.00000352 00000-0 -26485-4 0 9994
L22 43763 97.7594 112.3216 0014775 46.9385 313.3069 14.95483569 9874



Live tracking and technical data element details for OBJECT F (NORAD 43763). OBJECT F can be tracked NOW for your location showing map with azimuth and elevation plus other details from your city location.







IsCatalogInMostPopularTable: catalog: 43763, numindb: 432
Update: records affected: 1



GetName: 43763 OBJECT F

Hit Count: updated at: Fri, 02 Dec 2022 13:01:52 GMT